DateTime,F1_A11,F1_S11,BsB_S11,BsG_S11,BsR_S11,BbsB_S11,BbsG_S11,BbsR_S11,BaB_A11,BaG_A11,BaR_A11,T_S11,U_S11,P_S11,T1_A11
2016-06-04T00:00:00Z,0000380,20000600,,,,,,,,,,30.7,04.6,0675.8,34.9
2016-06-04T00:01:00Z,0000380,20000600,,,,,,,,,,30.7,04.7,0675.8,34.9
2016-06-04T00:02:00Z,0000380,20000600,,,,,,,,,,30.7,04.6,0675.9,34.9
2016-06-04T00:03:00Z,0000380,60000600,,,,,,,,,,30.7,04.6,0675.9,34.9
2016-06-04T00:04:00Z,0000380,40000600,-000.09,0000.51,0000.12,0000.24,0000.19,-000.24,-000.01,0000.07,0000.01,30.8,04.8,0676.7,34.9
2016-06-04T00:05:00Z,0000380,00000600,0001.09,0001.07,0000.63,0000.25,0000.38,0000.08,0000.27,0000.12,0000.23,30.8,04.7,0676.6,34.9
2016-06-04T00:06:00Z,0000380,00000600,0001.16,0000.11,0000.37,0000.46,0000.32,0000.30,0000.05,0000.11,0000.26,30.8,04.8,0676.7,34.9
2016-06-04T00:07:00Z,0000380,00000600,0000.52,0000.07,0000.33,0000.54,0000.73,0000.19,0000.21,0000.10,-000.25,30.8,04.8,0676.6,34.9
2016-06-04T00:08:00Z,0000380,00000600,0001.33,0001.08,0000.33,0000.43,0000.16,0000.10,-000.05,0000.15,0000.39,30.8,04.8,0676.7,34.9
2016-06-04T00:09:00Z,0000380,00000600,0000.55,0000.45,0000.31,0000.05,0000.35,0000.05,0000.14,-000.01,0000.00,30.8,04.8,0676.6,34.9
2016-06-04T00:10:00Z,0000380,00000600,0000.40,-000.04,0000.31,0000.44,-000.16,0000.02,0000.07,0000.24,0000.08,30.8,04.8,0676.7,34.9
2016-06-04T00:11:00Z,0000380,00000600,0000.79,0000.69,0000.37,-000.13,0000.44,0000.10,0000.01,-000.12,0000.18,30.7,04.7,0676.7,34.9
2016-06-04T00:12:00Z,0000380,00000600,0001.02,0000.29,0000.59,-000.25,-000.16,-000.14,0000.29,0000.23,-000.26,30.8,04.8,0676.7,34.9
2016-06-04T00:13:00Z,0000380,00000600,0001.69,0000.57,0000.27,0000.33,0000.14,-000.49,-000.10,0000.04,0000.17,30.8,04.7,0676.7,34.9
2016-06-04T00:14:00Z,0000380,00000600,0001.05,0000.26,0000.62,-000.38,-000.05,0000.40,0000.26,0000.06,0000.23,30.7,04.7,0676.7,34.9
2016-06-04T00:15:00Z,0000380,00000600,0000.38,0000.49,0000.09,-000.10,0000.28,-000.27,0000.13,0000.29,-000.10,30.7,04.7,0676.7,34.9
2016-06-04T00:16:00Z,0000380,00000600,0000.97,0000.15,0000.09,0000.10,-000.21,-000.21,0000.01,-000.18,-000.04,30.7,04.8,0676.7,34.9
2016-06-04T00:17:00Z,0000380,00000600,0000.22,0000.97,0000.33,0000.11,0000.44,0000.33,0000.29,0000.30,0000.04,30.7,04.8,0676.7,34.9
2016-06-04T00:18:00Z,0000380,00000600,0000.48,0001.35,0000.11,0001.01,0000.16,-000.13,0000.16,0000.06,0000.43,30.7,04.7,0676.6,34.9
2016-06-04T00:19:00Z,0000380,00000600,0000.69,-000.43,0000.48,-000.17,-000.17,0000.03,-000.05,0000.13,-000.03,30.7,04.7,0676.6,34.9
2016-06-04T00:20:00Z,0000380,00000600,0000.56,0001.04,0000.68,0000.32,0000.33,0000.02,0000.19,0000.15,0000.18,30.7,04.7,0676.6,34.9
2016-06-04T00:21:00Z,0000380,00000600,0000.51,0000.36,0000.86,0000.19,0000.38,-000.54,0000.21,0000.14,0000.05,30.7,04.7,0676.6,34.9
2016-06-04T00:22:00Z,0000380,00000600,0000.78,0000.15,0000.28,-000.02,0000.32,-000.03,0000.07,-000.04,-000.06,30.7,04.7,0676.7,34.9
2016-06-04T00:23:00Z,0000380,00000600,0000.57,0000.28,0000.19,0000.17,0000.02,-000.03,0000.08,0000.08,0000.01,30.7,04.7,0676.7,34.9
2016-06-04T00:24:00Z,0000380,00000600,0001.36,0000.50,-000.25,0000.00,-000.32,-000.41,0000.05,0000.04,0000.02,30.7,04.7,0676.6,34.9
2016-06-04T00:25:00Z,0000380,00000600,0000.71,-000.16,0000.49,-000.10,0000.39,0000.16,0000.33,0000.21,0000.44,30.7,04.7,0676.6,34.9
2016-06-04T00:26:00Z,0000380,00000600,0000.41,0000.58,0000.62,0000.10,0000.22,0000.05,0000.02,0000.12,-000.10,30.7,04.7,0676.6,34.9
2016-06-04T00:27:00Z,0000380,00000600,0000.89,0000.80,0000.61,0000.32,0000.36,0000.13,0000.32,0000.07,0000.13,30.6,04.7,0676.5,34.9
2016-06-04T00:28:00Z,0000380,00000600,0000.67,0000.46,0000.81,0000.51,0000.24,-000.44,0000.05,0000.25,-000.02,30.6,04.7,0676.6,34.9
2016-06-04T00:29:00Z,0000380,00000600,0001.60,0000.18,0000.38,-000.44,0000.32,-000.11,-000.02,0000.11,-000.07,30.6,04.7,0676.6,34.9
2016-06-04T00:30:00Z,0000380,00000600,0000.51,0001.04,0001.06,0000.17,0000.17,0000.00,0000.18,0000.17,0000.15,30.6,04.6,0676.7,34.9
2016-06-04T00:31:00Z,0000380,00000600,0000.09,0000.69,0000.20,-000.30,0000.43,-000.44,0000.13,-000.07,0000.06,30.6,04.6,0676.6,34.9
2016-06-04T00:32:00Z,0000380,00000600,0001.32,0000.44,0000.50,-000.03,-000.03,0000.21,-000.01,0000.16,0000.28,30.6,04.6,0676.6,34.9
2016-06-04T00:33:00Z,0000380,00000600,0000.91,0000.56,0000.38,0000.22,0000.11,-000.02,0000.28,-000.01,-000.33,30.6,04.6,0676.6,34.9
2016-06-04T00:34:00Z,0000380,00000600,0000.68,0001.13,0000.50,0000.22,-000.08,0000.25,0000.22,0000.34,0000.46,30.5,04.5,0676.5,34.9
2016-06-04T00:35:00Z,0000380,00000600,0001.15,0000.64,0000.76,-000.11,0000.27,-000.25,-000.09,-000.00,0000.27,30.5,04.6,0676.4,34.9
2016-06-04T00:36:00Z,0000380,00000600,0001.55,0000.78,0000.28,0000.33,0000.22,0000.06,0000.13,-000.01,-000.38,30.5,04.7,0676.5,34.9
2016-06-04T00:37:00Z,0000380,00000600,0000.51,0001.13,0000.54,0000.38,0000.09,-000.13,0000.40,0000.50,0000.47,30.5,04.7,0676.4,34.9
2016-06-04T00:38:00Z,0000380,00000600,-000.34,0000.40,0000.41,0000.14,-000.22,0000.00,0000.03,-000.17,-000.01,30.5,04.7,0676.3,34.9
2016-06-04T00:39:00Z,0000380,00000600,0000.58,0000.52,0000.85,-000.40,-000.05,0000.00,-000.03,-000.02,-000.18,30.5,04.8,0676.3,34.9
2016-06-04T00:40:00Z,0000380,00000600,0000.86,0000.93,0000.47,-000.51,0000.30,0000.14,0000.19,0000.36,0000.11,30.5,04.7,0676.3,34.9
2016-06-04T00:41:00Z,0000380,00000600,0000.36,0000.46,0000.42,0000.38,0000.17,0000.19,0000.09,0000.07,0000.41,30.5,04.7,0676.3,34.9
2016-06-04T00:42:00Z,0000380,00000600,0000.46,0000.42,0000.33,0000.11,0000.17,0000.06,0000.12,-000.05,-000.02,30.5,04.8,0676.4,34.9
2016-06-04T00:43:00Z,0000380,00000600,0000.87,-000.36,0000.74,0000.06,-000.06,-000.16,0000.22,0000.16,0000.06,30.5,04.7,0676.4,34.9
2016-06-04T00:44:00Z,0000380,00000600,0000.65,0000.85,0000.69,-000.62,0000.08,0000.00,0000.22,0000.21,0000.12,30.5,04.7,0676.4,34.9
2016-06-04T00:45:00Z,0000380,00000600,0001.14,0000.00,0000.23,0000.19,0000.24,-000.10,-000.07,0000.05,-000.26,30.5,04.8,0676.4,34.8
2016-06-04T00:46:00Z,0000380,00000600,0001.01,0000.25,0000.39,-000.40,0000.02,0000.19,0000.24,0000.12,0000.40,30.5,04.8,0676.3,34.8
2016-06-04T00:47:00Z,0000380,00000600,0000.32,0000.38,0000.31,-000.21,0000.05,0000.49,-000.06,0000.10,-000.15,30.5,04.8,0676.4,34.8
2016-06-04T00:48:00Z,0000380,00000600,-000.07,0000.15,0000.39,-000.19,-000.16,-000.43,0000.14,-000.02,0000.14,30.5,04.7,0676.3,34.8
2016-06-04T00:49:00Z,0000380,00000600,-000.12,0000.79,-000.22,0000.41,0000.17,-000.65,0000.12,0000.05,0000.03,30.5,04.8,0676.3,34.8
2016-06-04T00:50:00Z,0000380,00000600,0000.00,0000.81,0000.63,0000.33,0000.30,0000.27,0000.17,0000.17,0000.46,30.5,04.6,0676.2,34.8
2016-06-04T00:51:00Z,0000380,00000600,0000.89,-000.36,0000.73,0000.13,0000.21,0000.13,-000.15,0000.02,-000.43,30.5,04.7,0676.2,34.8
2016-06-04T00:52:00Z,0000380,00000600,0001.30,0000.37,0000.04,0000.49,0000.14,-000.05,0000.21,0000.24,0000.22,30.5,04.7,0676.3,34.8
2016-06-04T00:53:00Z,0000380,00000600,0000.08,0000.84,-000.10,0000.43,0000.22,-000.38,0000.23,-000.00,-000.08,30.5,04.7,0676.3,34.8
2016-06-04T00:54:00Z,0000380,00000600,0000.64,0000.19,0000.07,0000.35,0000.11,-000.27,-000.08,-000.02,0000.39,30.5,04.9,0676.2,34.8
2016-06-04T00:55:00Z,0000380,00000600,-000.16,0000.34,0000.15,-000.10,-000.05,-000.43,0000.29,0000.24,0000.33,30.5,04.8,0676.3,34.8
2016-06-04T00:56:00Z,0000380,00000600,0000.79,0000.93,0000.49,-000.76,0000.13,-000.38,0000.09,-000.03,-000.29,30.5,04.8,0676.3,34.8
2016-06-04T00:57:00Z,0000380,40000600,,,,,,,,,,,,0676.3,34.8
2016-06-04T00:58:00Z,0000380,60000600,,,,,,,,,,30.3,04.8,0675.5,34.8
2016-06-04T00:59:00Z,0000380,20000600,,,,,,,,,,30.3,04.8,0675.5,34.8
2016-06-04T01:00:00Z,0000380,20000600,,,,,,,,,,30.3,04.8,0675.5,34.9
2016-06-04T01:01:00Z,0000380,20000600,,,,,,,,,,30.3,04.8,0675.5,34.9
2016-06-04T01:02:00Z,0000380,20000600,,,,,,,,,,30.3,04.8,0675.5,34.9
2016-06-04T01:03:00Z,0000380,60000600,,,,,,,,,,30.4,04.8,0675.5,34.9
2016-06-04T01:04:00Z,0000380,40000600,0001.07,0000.64,0000.25,0000.59,-000.02,-000.08,0000.13,0000.16,0000.30,30.5,04.8,0676.2,34.9
2016-06-04T01:05:00Z,0000380,00000600,0000.37,0000.78,0000.47,-000.22,0000.08,0000.08,0000.01,-000.10,0000.09,30.5,04.8,0676.3,34.9
2016-06-04T01:06:00Z,0000380,00000600,0000.95,0000.28,0000.44,-000.11,0000.52,0000.24,0000.08,0000.23,-000.12,30.5,04.7,0676.3,34.9
2016-06-04T01:07:00Z,0000380,00000600,0000.20,0000.48,0000.60,-000.65,0000.39,0000.16,-000.03,-000.05,0000.17,30.4,04.7,0676.3,34.9
2016-06-04T01:08:00Z,0000380,00000600,0000.88,0000.60,0000.32,-000.43,0000.44,-000.02,0000.16,0000.00,-000.03,30.4,04.6,0676.3,34.9
2016-06-04T01:09:00Z,0000380,00000600,0000.58,0000.68,0000.50,0000.32,0000.03,0000.41,0000.43,0000.24,0000.04,30.4,04.7,0676.2,34.9
2016-06-04T01:10:00Z,0000380,00000600,0000.49,0001.23,0000.47,-000.14,0000.41,-000.14,-000.04,0000.04,0000.09,30.4,04.6,0676.3,34.9
2016-06-04T01:11:00Z,0000380,00000600,0000.55,0000.30,0000.63,0000.28,-000.28,0000.33,0000.03,0000.15,0000.07,30.3,04.6,0676.3,34.9
2016-06-04T01:12:00Z,0000380,00000600,0000.61,0001.47,0000.36,-000.46,0000.24,0000.16,0000.02,0000.14,0000.30,30.3,04.6,0676.3,34.9
2016-06-04T01:13:00Z,0000380,00000600,-000.61,0000.70,0000.47,-000.27,0000.44,0000.08,0000.11,-000.07,-000.19,30.3,04.7,0676.3,34.9
2016-06-04T01:14:00Z,0000380,00000600,0000.14,0000.51,0000.65,0000.54,0000.09,-000.06,0000.45,0000.12,0000.03,30.3,04.7,0676.2,34.9
2016-06-04T01:15:00Z,0000380,00000600,0000.28,0000.33,0000.92,-000.36,-000.03,0000.25,-000.18,0000.11,0000.01,30.3,04.6,0676.3,34.8
2016-06-04T01:16:00Z,0000380,00000600,0000.05,0000.70,0000.66,0000.05,0000.35,0000.33,0000.24,0000.18,0000.25,30.3,04.7,0676.3,34.8
2016-06-04T01:17:00Z,0000380,00000600,0000.21,0000.38,0000.19,0000.63,0000.73,0000.16,0000.19,-000.08,-000.13,30.3,04.7,0676.3,34.8
2016-06-04T01:18:00Z,0000380,00000600,0001.24,0000.87,0000.30,-000.09,0000.32,-000.13,-000.04,0000.26,-000.14,30.3,04.7,0676.3,34.8
2016-06-04T01:19:00Z,0000380,00000600,0001.17,0000.75,-000.10,0000.95,0000.11,0000.30,0000.25,-000.03,0000.47,30.3,04.7,0676.2,34.8
2016-06-04T01:20:00Z,0000380,00000600,0000.72,0000.58,0000.88,-000.11,0000.06,0000.32,0000.19,0000.21,-000.13,30.3,04.8,0676.3,34.8
2016-06-04T01:21:00Z,0000380,00000600,0001.50,0000.73,0000.21,0000.49,0000.08,0000.38,-000.13,-000.10,0000.14,30.2,04.7,0676.2,34.8
2016-06-04T01:22:00Z,0000380,00000600,0001.07,0000.94,0001.05,-000.32,0000.27,0000.17,0000.12,0000.32,-000.17,30.2,04.8,0676.2,34.8
2016-06-04T01:23:00Z,0000380,00000600,0000.12,0001.15,0000.28,0000.32,0000.24,-000.02,0000.16,-000.13,0000.22,30.2,04.8,0676.2,34.8
2016-06-04T01:24:00Z,0000380,00000600,0001.25,0000.92,0001.14,0000.35,0000.27,0000.51,0000.07,0000.30,0000.52,30.2,04.8,0676.2,34.8
2016-06-04T01:25:00Z,0000380,00000600,0000.27,0001.12,0000.41,-000.14,0000.17,0000.19,0000.01,0000.03,-000.45,30.2,04.7,0676.2,34.8
2016-06-04T01:26:00Z,0000380,00000600,0001.06,0001.09,0000.95,0000.22,-000.06,0000.43,0000.24,0000.19,0000.37,30.2,04.8,0676.2,34.8
2016-06-04T01:27:00Z,0000380,00000600,0001.02,0000.86,0000.43,0000.73,0000.50,0000.06,0000.08,-000.03,-000.03,30.1,04.8,0676.2,34.8
2016-06-04T01:28:00Z,0000380,00000600,-000.02,0001.24,0000.74,0000.63,0000.22,0000.16,0000.17,-000.07,0000.08,30.1,04.8,0676.2,34.8
2016-06-04T01:29:00Z,0000380,00000600,-000.05,0001.14,0000.65,0000.32,-000.03,0000.05,0000.13,0000.41,0000.06,30.0,04.8,0676.2,34.8
2016-06-04T01:30:00Z,0000380,00000600,0000.82,0000.98,0000.09,-000.17,0000.20,0000.02,0000.03,-000.03,0000.08,30.0,04.7,0676.2,34.7
2016-06-04T01:31:00Z,0000380,00000600,0001.24,0001.00,0001.05,0000.06,0000.33,0000.16,0000.30,0000.17,-000.05,30.0,04.8,0676.2,34.7
2016-06-04T01:32:00Z,0000380,00000600,0000.09,0001.04,0001.16,-000.17,0000.46,0000.33,-000.04,-000.20,-000.16,30.0,04.7,0676.2,34.7
2016-06-04T01:33:00Z,0000380,00000600,0000.73,0000.71,0000.55,-000.13,0000.08,0000.08,0000.19,0000.25,0000.64,30.0,04.8,0676.2,34.7
2016-06-04T01:34:00Z,0000380,00000600,0001.94,0000.73,0000.70,0000.13,0000.47,0000.49,-000.02,0000.07,-000.21,30.0,04.8,0676.2,34.7
2016-06-04T01:35:00Z,0000380,00000600,0000.42,0000.34,0000.71,0000.09,0000.25,0000.14,0000.40,0000.29,-000.21,30.0,04.8,0676.1,34.7
2016-06-04T01:36:00Z,0000380,00000600,0001.09,0001.37,0000.56,-000.13,0000.05,0000.21,-000.11,-000.09,0000.48,30.0,04.8,0676.2,34.7
2016-06-04T01:37:00Z,0000380,00000600,0000.41,0000.39,-000.14,0000.44,0000.25,-000.11,0000.07,0000.32,-000.04,29.9,04.7,0676.1,34.7
2016-06-04T01:38:00Z,0000380,00000600,0001.38,0000.86,0000.34,0000.38,0000.27,0000.49,0000.17,0000.03,0000.10,29.9,04.8,0676.2,34.7
2016-06-04T01:39:00Z,0000380,00000600,-000.24,0000.62,0001.25,0000.14,0000.06,-000.05,0000.02,0000.10,-000.05,29.9,04.8,0676.2,34.7
2016-06-04T01:40:00Z,0000380,00000600,0000.75,0000.82,0000.30,0000.00,0000.47,0000.32,0000.18,0000.01,0000.31,29.9,04.8,0676.2,34.7
2016-06-04T01:41:00Z,0000380,00000600,0000.40,0000.33,0000.74,0000.76,-000.02,0000.27,0000.22,0000.34,-000.01,29.9,04.9,0676.1,34.7
2016-06-04T01:42:00Z,0000380,00000600,0000.23,0000.62,0000.29,-000.70,0000.06,0000.33,0000.19,-000.06,0000.03,29.9,04.9,0676.1,34.7
2016-06-04T01:43:00Z,0000380,00000600,0000.47,0001.02,0000.30,0000.58,-000.06,0000.16,0000.07,0000.18,-000.04,29.8,04.9,0676.1,34.7
2016-06-04T01:44:00Z,0000380,00000600,-000.04,0000.38,0000.89,-000.24,0000.55,-000.05,0000.11,-000.06,0000.07,29.8,05.0,0676.1,34.7
2016-06-04T01:45:00Z,0000380,00000600,0001.26,0000.60,0000.65,-000.13,0000.31,0000.36,0000.06,0000.03,0000.38,29.8,05.1,0676.0,34.7
2016-06-04T01:46:00Z,0000380,00000600,0000.10,0000.52,0000.86,-000.09,0000.50,0000.00,0000.03,-000.00,-000.40,29.8,05.1,0676.0,34.7
2016-06-04T01:47:00Z,0000380,00000600,0000.13,0001.20,0000.27,0000.68,-000.22,0000.33,0000.31,0000.31,0000.14,29.8,05.1,0676.0,34.7
2016-06-04T01:48:00Z,0000380,00000600,0000.77,0000.40,-000.05,0000.13,0000.33,0000.24,-000.13,0000.10,0000.44,29.8,05.1,0676.0,34.7
2016-06-04T01:49:00Z,0000380,00000600,0001.08,0001.40,0000.78,0000.36,0000.33,0000.13,0000.28,0000.06,-000.02,29.8,05.1,0675.8,34.7
2016-06-04T01:50:00Z,0000380,00000600,0000.71,0000.99,0000.34,0000.00,0000.17,0000.32,0000.17,0000.14,-000.30,29.8,05.2,0675.9,34.7
2016-06-04T01:51:00Z,0000380,00000600,0000.65,0000.90,0000.46,-000.09,0000.47,0000.09,0000.05,0000.10,0000.63,29.8,05.1,0675.8,34.7
2016-06-04T01:52:00Z,0000380,00000600,0000.21,0000.71,0000.52,-000.06,0000.66,0000.87,0000.12,0000.09,0000.04,29.8,05.2,0675.6,34.7
2016-06-04T01:53:00Z,0000380,00000600,-000.14,0001.13,0000.29,-000.05,0000.27,0000.16,-000.03,0000.02,-000.18,29.8,05.1,0675.8,34.7
2016-06-04T01:54:00Z,0000380,00000600,0000.85,0000.63,-000.28,-000.08,0000.41,-000.17,-000.11,0000.03,0000.14,29.8,05.2,0675.8,34.7
2016-06-04T01:55:00Z,0000380,00000600,0000.83,0000.88,0000.40,-000.21,0000.33,0000.33,0000.50,0000.16,0000.13,29.8,05.2,0675.8,34.7
2016-06-04T01:56:00Z,0000380,00000600,0000.29,0000.26,0000.51,0000.87,0000.33,0000.02,0000.16,0000.08,0000.00,29.8,05.2,0675.7,34.7
2016-06-04T01:57:00Z,0000380,40000600,,,,,,,,,,,,0675.6,34.7
2016-06-04T01:58:00Z,0000380,60000600,,,,,,,,,,29.7,05.1,0675.0,34.7
2016-06-04T01:59:00Z,0000380,20000600,,,,,,,,,,29.7,05.1,0675.0,34.7
2016-06-04T02:00:00Z,0000380,20000600,,,,,,,,,,29.7,05.1,0675.0,34.8
2016-06-04T02:01:00Z,0000380,20000600,,,,,,,,,,29.7,05.1,0675.0,34.8
2016-06-04T02:02:00Z,0000380,20000600,,,,,,,,,,29.7,05.1,0675.0,34.8
2016-06-04T02:03:00Z,0000380,60000600,,,,,,,,,,29.7,05.1,0675.0,34.8
2016-06-04T02:04:00Z,0000380,40000600,0000.27,0000.65,0001.16,-000.36,0000.31,0000.05,-000.05,0000.08,0000.30,29.7,05.3,0675.7,34.8
2016-06-04T02:05:00Z,0000380,00000600,0000.12,0000.94,0000.19,-000.09,-000.27,0000.17,0000.18,0000.27,0000.03,29.8,05.3,0675.8,34.8
2016-06-04T02:06:00Z,0000380,00000600,0000.78,0000.90,0000.45,0000.52,0000.27,-000.02,0000.16,0000.30,0000.32,29.7,05.1,0675.8,34.8
2016-06-04T02:07:00Z,0000380,00000600,0001.26,0001.07,0000.53,-000.13,0000.28,0000.06,0000.24,-000.05,0000.01,29.7,05.2,0675.8,34.8
2016-06-04T02:08:00Z,0000380,00000600,0001.21,0001.10,0000.53,0000.43,-000.33,0000.05,-000.18,-000.11,-000.19,29.7,05.2,0675.8,34.8
2016-06-04T02:09:00Z,0000380,00000600,0000.10,0000.70,0000.17,0000.35,-000.16,0000.28,0000.20,0000.14,-000.25,29.7,05.2,0675.8,34.8
2016-06-04T02:10:00Z,0000380,00000600,0000.71,0000.91,0000.58,0000.71,-000.03,-000.05,0000.20,0000.13,0000.29,29.7,05.1,0675.8,34.8
2016-06-04T02:11:00Z,0000380,00000600,0001.09,0000.47,0000.63,-000.44,0000.06,0000.71,0000.20,0000.15,0000.25,29.7,05.1,0675.7,34.8
2016-06-04T02:12:00Z,0000380,00000600,0000.53,0000.66,0000.36,0000.90,0000.38,0000.11,0000.06,0000.08,-000.02,29.7,05.1,0675.7,34.8
2016-06-04T02:13:00Z,0000380,00000600,-000.24,0000.79,0000.65,0000.02,0000.13,0000.13,-000.05,0000.12,-000.17,29.7,05.1,0675.7,34.8
2016-06-04T02:14:00Z,0000380,00000600,0000.26,0000.64,0000.75,-000.16,0000.20,0000.68,0000.32,0000.16,0000.51,29.7,05.1,0675.8,34.8
2016-06-04T02:15:00Z,0000380,00000600,0000.38,0000.24,0000.84,0000.38,-000.09,0000.28,-000.19,-000.05,-000.26,29.6,05.1,0675.7,34.8
2016-06-04T02:16:00Z,0000380,00000600,0000.27,0001.13,0000.84,-000.44,0000.17,0000.11,0000.14,0000.20,0000.38,29.6,05.1,0675.8,34.8
2016-06-04T02:17:00Z,0000380,00000600,0000.37,0001.12,0000.32,-000.27,0000.33,0000.33,0000.19,0000.05,-000.00,29.6,05.0,0675.8,34.8
2016-06-04T02:18:00Z,0000380,00000600,0002.25,0001.64,0000.10,0000.03,0000.31,0000.33,0000.05,0000.07,-000.14,29.6,05.0,0675.8,34.8
2016-06-04T02:19:00Z,0000380,00000600,0000.25,0000.60,0000.44,0000.27,0000.49,0000.14,0000.21,0000.21,0000.25,29.6,05.0,0675.8,34.8
2016-06-04T02:20:00Z,0000380,00000600,0000.86,0001.28,0000.78,0000.06,0000.20,0000.47,0000.16,0000.22,0000.37,29.6,05.1,0675.8,34.8
2016-06-04T02:21:00Z,0000380,00000600,-000.31,0000.46,0000.73,0000.03,0000.16,0000.02,0000.47,0000.09,-000.04,29.5,05.0,0675.8,34.8
2016-06-04T02:22:00Z,0000380,00000600,0001.32,0000.96,0000.79,0000.14,0000.30,0000.17,-000.15,-000.02,0000.01,29.5,05.0,0675.8,34.8
2016-06-04T02:23:00Z,0000380,00000600,0001.36,0000.94,0000.67,0000.00,0000.20,-000.32,0000.21,0000.20,0000.03,29.5,05.0,0675.8,34.8
2016-06-04T02:24:00Z,0000380,00000600,0000.69,0001.33,0000.75,0000.00,-000.19,-000.17,0000.08,0000.18,-000.05,29.5,05.0,0675.8,34.8
2016-06-04T02:25:00Z,0000380,00000600,-000.02,0001.03,0000.53,-000.09,0000.28,0000.05,0000.21,-000.01,0000.10,29.5,05.0,0675.7,34.8
2016-06-04T02:26:00Z,0000380,00000600,0001.20,0001.00,0000.44,0000.30,-000.16,0000.17,0000.12,0000.18,0000.40,29.5,05.0,0675.7,34.8
2016-06-04T02:27:00Z,0000380,00000600,0000.41,0001.23,0000.55,-000.39,0000.06,-000.08,0000.03,0000.03,-000.33,29.5,05.0,0675.8,34.8
2016-06-04T02:28:00Z,0000380,00000600,0000.57,0001.14,0000.73,0000.05,-000.30,0000.08,0000.11,0000.19,0000.32,29.5,05.0,0675.7,34.8
2016-06-04T02:29:00Z,0000380,00000600,0000.70,0001.31,0000.22,0000.02,-000.02,0000.02,-000.02,-000.03,0000.06,29.5,05.0,0675.7,34.8
2016-06-04T02:30:00Z,0000380,00000600,0000.64,0001.07,0000.49,-000.22,0000.09,0000.08,0000.39,0000.04,-000.07,29.4,05.0,0675.7,34.6
2016-06-04T02:31:00Z,0000380,00000600,0001.52,0000.82,0000.30,0000.30,0000.30,-000.22,-000.10,0000.25,-000.03,29.3,05.1,0675.7,34.6
2016-06-04T02:32:00Z,0000380,00000600,0000.79,0000.89,0000.63,-000.22,0000.17,-000.13,0000.33,0000.22,0000.29,29.3,05.1,0675.7,34.6
2016-06-04T02:33:00Z,0000380,00000600,0001.01,0000.71,0000.38,0000.24,0000.31,0000.54,0000.13,0000.03,0000.03,29.3,05.1,0675.6,34.6
2016-06-04T02:34:00Z,0000380,00000600,0000.48,0000.80,0000.22,0000.21,0000.03,0000.49,0000.16,0000.06,0000.42,29.3,05.1,0675.7,34.6
2016-06-04T02:35:00Z,0000380,00000600,0001.21,0001.09,0000.54,-000.11,0000.09,-000.09,0000.24,0000.10,0000.28,29.3,05.0,0675.7,34.6
2016-06-04T02:36:00Z,0000380,00000600,0000.81,0000.73,0000.57,-000.08,0000.36,0000.11,0000.05,0000.26,-000.40,29.3,05.0,0675.7,34.6
2016-06-04T02:37:00Z,0000380,00000600,0000.36,0000.64,0000.12,0000.47,-000.06,0000.03,-000.10,0000.08,-000.01,29.3,05.0,0675.7,34.6
2016-06-04T02:38:00Z,0000380,00000600,0000.63,0000.79,0000.41,0000.32,-000.25,0000.30,0000.47,-000.02,0000.36,29.2,05.0,0675.6,34.6
2016-06-04T02:39:00Z,0000380,00000600,0000.70,0001.00,0000.46,-000.35,0000.00,0000.28,-000.08,0000.26,-000.06,29.2,05.1,0675.6,34.6
2016-06-04T02:40:00Z,0000380,00000600,0000.93,0000.98,0000.95,-000.09,-000.33,-000.14,0000.16,0000.04,0000.31,29.2,05.0,0675.6,34.6
2016-06-04T02:41:00Z,0000380,00000600,0000.93,0000.43,0000.46,0000.11,0000.41,0000.05,0000.12,0000.39,-000.25,29.2,05.0,0675.6,34.6
2016-06-04T02:42:00Z,0000380,00000600,0000.75,0000.89,0000.40,0000.54,0000.06,0000.19,0000.17,-000.20,0000.19,29.1,05.0,0675.5,34.6
2016-06-04T02:43:00Z,0000380,00000600,0000.69,0001.12,0000.52,0000.11,0000.09,0000.35,0000.04,0000.29,0000.16,29.1,05.0,0675.5,34.6
2016-06-04T02:44:00Z,0000380,00000600,0000.83,0000.96,0000.32,0000.32,0000.02,0000.27,0000.28,-000.05,0000.01,29.0,05.0,0675.5,34.6
2016-06-04T02:45:00Z,0000380,00000600,0002.22,0001.16,0000.53,0000.13,0000.33,0000.05,0000.24,0000.08,0000.10,29.0,05.1,0675.5,34.6
2016-06-04T02:46:00Z,0000380,00000600,0000.45,0000.98,0000.53,0000.71,0000.28,0000.38,-000.08,0000.18,0000.22,29.0,05.1,0675.5,34.6
2016-06-04T02:47:00Z,0000380,00000600,0000.88,0001.22,0000.53,0000.47,0000.42,0000.44,0000.19,0000.20,-000.04,29.0,05.1,0675.5,34.6
2016-06-04T02:48:00Z,0000380,00000600,0000.65,0000.99,0001.25,-000.13,0000.00,0000.63,0000.18,0000.09,0000.11,29.0,05.1,0675.5,34.6
2016-06-04T02:49:00Z,0000380,00000600,0001.25,0000.80,0000.37,0000.03,-000.02,-000.14,0000.18,0000.22,0000.26,29.0,05.1,0675.5,34.6
2016-06-04T02:50:00Z,0000380,00000600,0000.65,0000.88,0000.51,0000.06,0000.39,-000.09,0000.11,0000.14,0000.08,29.0,05.3,0675.5,34.6
2016-06-04T02:51:00Z,0000380,00000600,0000.95,0001.05,0000.33,0000.47,-000.50,0000.09,0000.22,0000.11,0000.20,28.9,05.2,0675.5,34.6
2016-06-04T02:52:00Z,0000380,00000600,0001.64,0000.99,0000.99,-000.11,0000.31,0000.08,-000.11,0000.08,-000.08,28.9,05.2,0675.5,34.6
2016-06-04T02:53:00Z,0000380,00000600,0001.41,0001.23,0000.20,0000.36,0000.19,0000.30,0000.38,0000.12,0000.14,28.8,05.3,0675.5,34.6
2016-06-04T02:54:00Z,0000380,00000600,0000.53,0001.02,0000.56,0000.16,0000.25,0000.09,0000.33,0000.33,0000.23,28.8,05.2,0675.4,34.6
2016-06-04T02:55:00Z,0000380,00000600,0001.50,0001.11,0000.42,0000.35,0000.30,0000.28,-000.01,-000.10,-000.17,28.8,05.3,0675.3,34.6
2016-06-04T02:56:00Z,0000380,00000600,0001.68,0000.34,0000.65,0000.58,-000.25,-000.02,0000.28,0000.26,0000.19,28.8,05.4,0675.3,34.6
2016-06-04T02:57:00Z,0000380,40000600,,,,,,,,,,,,0675.1,34.6
2016-06-04T02:58:00Z,0000380,60000600,,,,,,,,,,28.7,05.3,0674.4,34.6
2016-06-04T02:59:00Z,0000380,20000600,,,,,,,,,,28.7,05.3,0674.3,34.6
2016-06-04T03:00:00Z,0000380,20000600,,,,,,,,,,28.7,05.3,0674.4,34.6
2016-06-04T03:01:00Z,0000380,20000600,,,,,,,,,,28.7,05.3,0674.4,34.6
2016-06-04T03:02:00Z,0000380,20000600,,,,,,,,,,28.7,05.3,0674.4,34.6
2016-06-04T03:03:00Z,0000380,60000600,,,,,,,,,,28.7,05.3,0674.4,34.6
2016-06-04T03:04:00Z,0000380,40000600,0002.12,0001.25,0000.61,-000.33,0000.17,0000.58,0000.12,0000.15,0000.19,28.7,05.4,0675.2,34.6
2016-06-04T03:05:00Z,0000380,00000600,0001.03,0001.38,0000.42,0000.00,0000.35,0000.24,0000.17,0000.08,0000.29,28.7,05.5,0675.2,34.6
2016-06-04T03:06:00Z,0000380,00000600,0002.00,0000.74,0000.63,0000.66,0000.22,0000.21,-000.00,0000.11,-000.05,28.7,05.5,0675.2,34.6
2016-06-04T03:07:00Z,0000380,00000600,0001.79,0000.78,0000.59,-000.09,0000.19,-000.19,0000.24,0000.02,0000.12,28.7,05.6,0675.2,34.6
2016-06-04T03:08:00Z,0000380,00000600,0001.01,0001.32,0000.37,0000.09,0000.11,0000.41,-000.12,0000.30,0000.32,28.7,05.5,0675.2,34.6
2016-06-04T03:09:00Z,0000380,00000600,0001.77,0000.62,0000.53,0000.13,0000.03,0000.52,0000.40,-000.07,-000.31,28.7,05.6,0675.2,34.6
2016-06-04T03:10:00Z,0000380,00000600,0001.60,0000.69,0000.05,0000.08,0000.16,0000.35,-000.01,0000.19,0000.47,28.6,05.6,0675.2,34.6
2016-06-04T03:11:00Z,0000380,00000600,0000.68,0000.63,-000.03,-000.27,0000.35,-000.32,0000.18,0000.21,0000.00,28.7,05.6,0675.1,34.6
2016-06-04T03:12:00Z,0000380,00000600,0000.70,0000.40,0000.00,-000.06,0000.16,0000.13,0000.23,0000.06,-000.08,28.6,05.6,0675.1,34.6